Weather History for Akron Canton, OH

Change the Weather History Date:

Wednesday, March 13, 2013

  Actual Average Record
Temperature  
Mean Temperature 29 °F 36 °F  
Max Temperature 32 °F 45 °F 75 °F (1990)
Min Temperature 26 °F 27 °F 4 °F (1948)
Degree Days  
Heating Degree Days 36 29  
Month to date heating degree days 396 399  
Since 1 July heating degree days 4657 4943  
Cooling Degree Days 0 0  
Month to date cooling degree days 0 0  
Year to date cooling degree days 0 0  
Moisture  
Dew Point 24 °F    
Average Humidity 75    
Maximum Humidity 92    
Minimum Humidity 58    
Precipitation  
Precipitation 0.10 in 0.09 in 1.15 in (1951)
Month to date precipitation 0.88 1.14  
Year to date precipitation 5.07 6.06  
Snow  
Snow 1.10 in 0.30 in - ()
Month to date snowfall 4.5 4.3  
Since 1 July snowfall 40.9 40.8  
Snow Depth 0.00 in    
Sea Level Pressure  
Sea Level Pressure 30.00 in    
Wind  
Wind Speed 13 mph (West)    
Max Wind Speed 25 mph    
Max Gust Speed 36 mph    
Visibility 4 miles    
Events Fog , Snow    
T = Trace of Precipitation, MM = Missing Value Source: NWS Daily Summary

Daily Weather History Graph

Daily Weather History Graph

Search for Another Location

Airport:

Trip Planner

Search our weather history database for the weather conditions in past years. The results will help you decide how hot, cold, wet, or windy it might be!

Date:

Astronomy

Mar. 13, 2013 Rise Set
Actual Time 7:40 AM EDT 7:30 PM EDT
Civil Twilight 7:12 AM EDT 7:57 PM EDT
Nautical Twilight 6:41 AM EDT 8:29 PM EDT
Astronomical Twilight 6:08 AM EDT 9:02 PM EDT
Moon 8:17 AM EDT (3/13) 9:47 PM EDT (3/13)
Length of Visible Light 12h 44m
Length of Day
11h 50m
Waxing Crescent, 4% of the Moon is Illuminated
Mar 13
Waxing Crescent
Mar 19
First Quarter
Mar 27
Full
Apr 3
Last Quarter
Apr 10
New

Hourly Weather History & Observations

Time (EDT) Temp. Windchill Dew Point Humidity Pressure Visibility Wind Dir Wind Speed Gust Speed Precip Events Conditions
12:51 AM 30.9 °F 24.3 °F 27.0 °F 85% 29.97 in 5.0 mi SW 6.9 mph - N/A   Partly Cloudy
1:51 AM 30.0 °F 24.1 °F 26.1 °F 85% 29.97 in 5.0 mi SW 5.8 mph - N/A   Partly Cloudy
2:51 AM 30.0 °F 24.1 °F 27.0 °F 88% 29.95 in 5.0 mi SW 5.8 mph - N/A   Overcast
3:49 AM 30.2 °F 21.9 °F 28.4 °F 93% 29.90 in 1.5 mi SW 9.2 mph - 0.00 in Snow Light Snow
3:51 AM 30.9 °F 23.5 °F 28.0 °F 89% 29.94 in 1.2 mi SW 8.1 mph - 0.00 in Snow Light Snow
4:15 AM 30.2 °F 21.9 °F 28.4 °F 93% 29.90 in 2.0 mi WSW 9.2 mph - 0.01 in Snow Light Snow
4:17 AM 30.2 °F 22.6 °F 28.4 °F 93% 29.90 in 2.0 mi SW 8.1 mph - 0.01 in Snow Light Snow
4:51 AM 32.0 °F 24.2 °F 28.0 °F 85% 29.92 in 4.0 mi West 9.2 mph - 0.01 in Snow Light Snow
5:39 AM 30.2 °F 22.6 °F 26.6 °F 86% 29.90 in 6.0 mi West 8.1 mph - 0.00 in   Mostly Cloudy
5:51 AM 30.0 °F 22.4 °F 26.1 °F 85% 29.93 in 6.0 mi West 8.1 mph - 0.00 in   Scattered Clouds
6:51 AM 30.9 °F 22.8 °F 25.0 °F 79% 29.93 in 7.0 mi WSW 9.2 mph 17.3 mph 0.00 in Snow Light Snow
7:51 AM 30.9 °F 21.7 °F 25.0 °F 79% 29.94 in 4.0 mi West 11.5 mph - 0.01 in Snow Light Snow
8:43 AM 30.2 °F 17.8 °F 26.6 °F 86% 29.91 in 0.5 mi WNW 19.6 mph 23.0 mph 0.00 in Fog , Snow Snow
8:51 AM 28.0 °F 15.7 °F 26.1 °F 92% 29.95 in 0.2 mi WNW 17.3 mph 23.0 mph 0.03 in Snow Heavy Snow
9:00 AM 28.4 °F 18.0 °F 24.8 °F 86% 29.91 in 3.0 mi WNW 12.7 mph - 0.01 in Snow Light Snow
9:26 AM 28.4 °F 18.5 °F 24.8 °F 86% 29.92 in 7.0 mi WNW 11.5 mph - 0.01 in Snow Light Snow
9:51 AM 30.0 °F 19.5 °F 23.0 °F 75% 29.96 in 10.0 mi West 13.8 mph 24.2 mph 0.01 in   Overcast
10:51 AM 28.9 °F 17.3 °F 21.9 °F 75% 29.99 in 7.0 mi WNW 16.1 mph 23.0 mph 0.00 in Snow Light Snow
11:51 AM 30.0 °F 19.5 °F 21.0 °F 69% 30.00 in 8.0 mi West 13.8 mph 20.7 mph 0.00 in   Overcast
12:41 PM 30.2 °F 19.3 °F 23.0 °F 75% 29.97 in 2.0 mi WNW 15.0 mph 24.2 mph 0.00 in Snow Light Snow
12:51 PM 28.0 °F 16.5 °F 25.0 °F 88% 30.02 in 0.8 mi West 15.0 mph 23.0 mph 0.01 in Snow Light Snow
12:59 PM 28.4 °F 17.5 °F 26.6 °F 93% 29.98 in 0.2 mi West 13.8 mph 23.0 mph 0.02 in Snow Heavy Snow
1:21 PM 30.2 °F 17.8 °F 24.8 °F 80% 29.98 in 2.0 mi WNW 19.6 mph 24.2 mph 0.03 in Snow Light Snow
1:51 PM 30.0 °F 20.5 °F 24.1 °F 79% 30.03 in 2.0 mi WNW 11.5 mph - 0.03 in Snow Light Snow
2:12 PM 30.2 °F 17.8 °F 17.6 °F 60% 29.98 in 4.0 mi West 19.6 mph 32.2 mph 0.00 in Snow Light Snow
2:51 PM 30.0 °F 16.9 °F 18.0 °F 61% 30.03 in 4.0 mi WNW 21.9 mph 32.2 mph 0.00 in Snow Light Snow
3:51 PM 28.9 °F 17.3 °F 18.0 °F 64% 30.06 in 8.0 mi WNW 16.1 mph 28.8 mph 0.00 in Snow Light Snow
4:51 PM 28.9 °F 15.8 °F 19.0 °F 67% 30.07 in 3.0 mi WNW 20.7 mph 29.9 mph 0.00 in Snow Light Snow
5:51 PM 28.9 °F 16.9 °F 21.0 °F 72% 30.09 in 7.0 mi WNW 17.3 mph 23.0 mph 0.00 in Snow Light Snow
6:00 PM 28.4 °F 15.8 °F 21.2 °F 74% 30.05 in 1.5 mi WNW 18.4 mph 26.5 mph 0.00 in Snow Light Snow
6:12 PM 28.4 °F 15.4 °F 21.2 °F 74% 30.06 in 3.0 mi West 19.6 mph 24.2 mph 0.00 in Snow Light Snow
6:51 PM 28.0 °F 16.5 °F 21.9 °F 78% 30.11 in 2.0 mi West 15.0 mph 21.9 mph 0.00 in Snow Light Snow
6:58 PM 28.4 °F 17.0 °F 21.2 °F 74% 30.07 in 3.0 mi WNW 15.0 mph - 0.00 in Snow Light Snow
7:51 PM 28.0 °F 16.5 °F 19.0 °F 69% 30.13 in 3.0 mi WNW 15.0 mph - 0.00 in Snow Light Snow
8:51 PM 28.0 °F 17.0 °F 19.9 °F 72% 30.14 in 5.0 mi WNW 13.8 mph - 0.00 in Snow Light Snow
9:51 PM 27.0 °F 16.1 °F 21.0 °F 78% 30.16 in 7.0 mi West 12.7 mph 18.4 mph 0.00 in Snow Light Snow
10:51 PM 27.0 °F 15.2 °F 21.0 °F 78% 30.17 in 8.0 mi West 15.0 mph - 0.00 in Snow Light Snow
11:51 PM 27.0 °F 14.3 °F 19.9 °F 75% 30.18 in 7.0 mi WNW 17.3 mph - 0.00 in Snow Light Snow